Miscellaneous Local Product
Issued by NWS North Platte, NE

Home | Current Version | Previous Version | Text Only | Print | Product List | Glossary On
Versions: 1 2 3 4 5 6 7 8 9 10 11 12 13 14 15 16 17 18 19 20 21 22 23 24 25 26 27 28 29 30 31 32 33 34 35 36 37 38 39 40 41 42 43 44 45 46 47 48 49 50
000
AXUS43 KLBF 260810
MISLBF


WESTERN AND NORTH CENTRAL NEBRASKA HOURLY WEATHER ROUNDUP
NATIONAL WEATHER SERVICE NORTH PLATTE NE
300 AM CDT WED JUL 26 2017

NOTE: "FAIR" INDICATES FEW OR NO CLOUDS BELOW 12,000 FEET WITH NO
SIGNIFICANT WEATHER AND/OR OBSTRUCTIONS TO VISIBILITY.

NOTE: STATIONS NOT REPORTING VARIABLES SUCH AS SKY/WEATHER OR
PRESSURE ARE PROVIDED BY RAWS AND APRS NETWORKS AND ARE NOT UNDER
NATIONAL WEATHER SERVICE QUALITY CONTROL.

...OBSERVATIONS IN AND NEAR THE EASTERN PANHANDLE OF NEBRASKA...

CITY           SKY/WX    TMP DP  RH WIND       PRES   REMARKS
PINE RIDGE     CLOUDY    71  67  87 N8        30.07F
GORDON         CLOUDY    69  67  92 NE9       30.05F
CHADRON        CLOUDY    72  56  57 N10       30.08S
ALLIANCE       CLOUDY    69  66  90 N16G22    30.06S
SIDNEY         CLOUDY    70  62  76 N16G24    30.08R
CRESCENT LAKE    N/A     70  64  82 NE15        N/A
$$

...OBSERVATIONS IN NORTHERN NEBRASKA AND FAR SOUTHERN SOUTH DAKOTA...

CITY           SKY/WX    TMP DP  RH WIND       PRES   REMARKS
WINNER         MOCLDY    71  68  90 N7        29.97F
VALENTINE      CLOUDY    70  66  87 N9        29.95F
THEDFORD       CLOUDY    68  67  95 CALM      30.00R
AINSWORTH      LGT RAIN  67  67 100 SE13      29.95F
O`NEILL        RAIN      69  69 100 S7        30.02F
ORD            LGT RAIN  68  65  90 NE8       29.98F
BROKEN BOW     CLOUDY    69  66  90 NE10G21   29.99R
VALENTINE NWR    N/A     67  66  98 NE6G13      N/A
HALSEY           N/A     66  66 100 E5G12       N/A
BUTTE            N/A     69  67  95 MISG        N/A
CHAMBERS         N/A     68  67  96 E6          N/A
EWING            N/A     70  69  96 SE3         N/A
$$

...OBSERVATIONS IN SOUTHWEST NEBRASKA AND FAR NORTHEAST COLORADO...

CITY           SKY/WX    TMP DP  RH WIND       PRES   REMARKS
HOLYOKE        FAIR      73  64  73 N16       29.98S
IMPERIAL       MOCLDY    75  62  64 MISG      29.94R
OGALLALA       CLOUDY    73  65  78 NE18G25   29.97R
NORTH PLATTE   CLOUDY    71  67  87 NE21G29   29.96R
MCCOOK         CLOUDY    76  70  82 E8        29.89F
LEXINGTON      RAIN      75  69  82 SE10G18   29.93S
STAPLETON        N/A     67  65  93 NE8G21      N/A
GOTHENBURG       N/A     76  66  71 SE9         N/A
CALLAWAY         N/A     71  68  91 E12         N/A
$$

...OBSERVATIONS IN CENTRAL LINCOLN COUNTY AREA...

CITY           SKY/WX    TMP DP  RH WIND       PRES   REMARKS
N.P. AIRPORT   CLOUDY    71  67  87 NE21G29   29.96R
N.P. DOWNTOWN    N/A     70  66  86 E12G20      N/A
N.P. SOUTHEAST   N/A     70  66  86 NE6G17      N/A
N.P. HILLCREST   N/A     69  66  91 E21G29      N/A
$$

...SOME OBSERVATIONS FROM AROUND THE REGION...

CITY           SKY/WX    TMP DP  RH WIND       PRES   REMARKS
DENVER         MOCLDY    67  57  70 NW8       30.18S
LIMON          CLOUDY    65  59  81 NW13      30.13F
ASPEN          CLOUDY    57  54  89 SW3       30.36S
LARAMIE        CLOUDY    58  56  93 W3        30.30F
CASPER         CLOUDY    61  57  87 N6        30.22F
CHEYENNE       CLOUDY    62  54  74 NW8       30.24S
SCOTTSBLUFF    CLOUDY    74  61  63 N6        30.10S
GRAND ISLAND   TSTM      77  72  84 W17G28    29.98R
OMAHA          CLOUDY    83  73  72 S14       29.93F
SIOUX FALLS    LGT RAIN  72  72 100 S7        29.95F
PIERRE         CLOUDY    73  66  78 S9        29.99R
RAPID CITY     CLOUDY    69  54  58 NW9       30.12R
BISMARCK       CLOUDY    68  56  65 NE8       30.07S
KANSAS CITY    PTCLDY    80  73  79 S9        30.00F
HILL CITY      CLOUDY    84  66  54 S16G26    29.90S
WICHITA        PTCLDY    82  73  74 S14       29.98F
DODGE CITY     CLOUDY    81  67  62 S18G26    29.97F
OKLAHOMA CITY  PTCLDY    78  70  76 S12       30.03F
DALLAS         CLEAR     84  71  65 S10       30.03S
AMARILLO       MOCLDY    78  61  55 S20       30.10S
$$




USA.gov is the U.S. government's official web portal to all federal, state and local government web resources and services.